Location: Poughquag
(41.6090°N, 73.6820°W)
Time: 10:13:11
(UTC-05:00)

BlueWalker 3 - Visible Passes

Search period start: 05 February 2023 00:00
Search period end: 15 February 2023 00:00
Orbit: 499 x 517 km, 53.2° (Epoch: 04 February)

Date Brightness Start Highest point End Pass type
(mag) Time Alt. Az. Time Alt. Az. Time Alt. Az.
05 Feb 3.9 19:13:57 10° NNW 19:15:59 20° N 19:15:59 20° N visible
06 Feb 3.5 18:54:57 10° NNW 18:57:55 23° NNE 18:57:55 23° NNE visible
07 Feb 3.3 18:35:58 10° NW 18:39:09 23° NNE 18:39:55 22° NE visible
07 Feb 5.0 20:14:14 10° NW 20:14:43 13° NW 20:14:43 13° NW visible
08 Feb 3.3 18:16:56 10° NW 18:20:10 24° NNE 18:21:59 18° ENE visible
08 Feb 4.2 19:55:15 10° NW 19:56:47 23° WNW 19:56:47 23° WNW visible
09 Feb 3.3 17:57:56 10° NW 18:01:12 25° NNE 18:04:08 12° ENE visible
09 Feb 3.1 19:36:14 10° NW 19:38:57 42° WNW 19:38:57 42° WNW visible
10 Feb 2.1 19:17:14 10° WNW 19:21:06 67° SW 19:21:15 66° SSW visible
11 Feb 2.3 18:58:13 10° WNW 19:02:04 63° SW 19:03:43 31° SSE visible
12 Feb 2.4 18:39:12 10° WNW 18:43:01 59° SW 18:46:22 13° SE visible
13 Feb 2.6 18:20:10 10° WNW 18:23:59 56° SW 18:27:48 10° SE visible
14 Feb 2.8 18:01:08 10° WNW 18:04:55 53° SW 18:08:43 10° SSE visible
